Lid_Strength_Index
4 4 4 3 3 3 3 3 3 3 3 4 4 4 4 3 2 4 5 4 5 7 5 5 5 7 8 8 11 8 8 8 9 12 13 11 12 13 13 12 13 14 14 15 14 16 17 7 7 11 8 6 5 5
4 4 4 4 3 3 3 3 3 4 4 4 4 4 4 3 3 3 6 4 4 7 6 3 3 3 5 6 7 8 8 8 8 10 10 11 13 11 12 15 8 13 12 14 12 11 8 6 6 5 4 5 5 5
4 4 4 4 3 3 3 3 3 4 4 4 3 3 3 3 2 2 4 4 5 8 7 6 6 3 2 3 3 8 8 6 7 6 9 10 12 9 13 12 10 9 7 10 10 8 7 6 4 4 4 4 4 4
4 4 4 3 3 3 3 3 3 3 3 3 3 2 1 1 1 1 4 3 4 7 9 6 3 4 3 2 3 3 4 5 5 7 10 11 11 8 10 9 10 9 8 9 9 7 6 5 5 4 4 4 4 4
4 4 4 3 3 3 3 3 3 3 3 3 2 1 1 0 0 -0 1 2 2 5 9 7 4 3 3 3 4 4 5 6 8 10 11 11 8 8 8 8 10 7 9 10 11 7 7 6 4 4 5 6 6 6
4 4 4 4 4 4 4 4 4 3 2 2 1 0 -0 -0 0 2 6 3 3 3 9 10 5 5 4 4 4 5 6 6 8 10 10 9 7 8 11 11 7 7 6 6 7 4 4 4 4 4 5 5 5 5
3 4 4 3 3 4 3 2 2 1 1 1 0 0 0 0 0 3 5 2 2 3 8 10 7 5 4 4 4 5 6 8 9 10 10 9 8 8 10 11 8 7 5 4 4 5 6 5 6 5 4 4 5 5
3 4 3 3 2 2 2 2 1 1 1 1 1 0 0 1 3 4 2 2 2 6 6 10 8 7 4 6 7 5 9 9 9 9 8 9 8 8 12 7 6 5 6 5 5 5 5 5 4 5 5 6 6 7
3 2 2 2 1 1 1 1 1 2 2 1 0 1 2 3 6 5 2 3 3 5 8 9 10 9 4 5 7 8 7 11 7 10 9 8 10 12 8 7 7 6 6 6 5 5 5 5 6 6 6 6 8 10
2 2 2 2 2 2 2 2 2 2 1 1 2 4 7 5 1 3 6 8 8 7 7 10 8 9 5 7 8 10 8 10 12 9 8 11 11 6 6 5 6 5 6 5 6 6 6 6 7 6 6 7 9 11
2 2 2 1 2 2 2 1 1 2 2 3 6 8 5 2 5 7 9 9 9 11 9 9 9 10 6 10 10 8 11 10 13 11 11 11 10 8 6 6 5 6 5 5 5 5 5 6 6 6 7 9 10 10
3 2 2 2 2 2 2 2 2 2 4 4 5 4 5 7 8 9 10 9 10 10 8 9 8 9 8 7 10 9 11 10 15 8 11 12 10 6 6 6 6 5 5 5 5 6 6 6 6 7 8 10 10 11
3 2 2 2 2 2 2 2 2 3 3 5 7 8 8 9 11 12 12 11 11 8 8 8 10 9 9 9 10 10 12 12 7 11 11 10 7 6 6 5 6 5 4 5 6 6 6 6 7 8 9 10 10 11
3 2 2 2 2 2 2 2 2 3 4 8 9 11 10 11 10 8 8 8 6 7 8 8 9 10 9 10 10 12 9 8 12 14 14 9 7 6 5 4 5 5 5 6 6 7 7 7 8 9 10 10 11 12
3 2 2 2 2 2 2 2 2 3 5 8 8 11 10 6 5 5 5 6 6 6 7 8 8 9 10 10 8 9 12 13 12 12 8 7 5 5 5 5 5 5 5 6 6 7 7 8 9 10 10 10 11 12
3 2 2 2 2 2 2 2 3 4 6 8 9 9 7 7 7 6 6 7 6 7 7 8 9 11 11 10 11 11 12 13 10 7 5 5 5 5 5 5 5 6 6 6 6 6 7 8 10 10 10 11 12 13
3 4 2 2 2 2 2 5 5 7 8 9 9 7 6 5 6 5 4 6 5 7 10 9 12 11 8 11 12 9 11 8 6 5 4 5 5 5 5 6 6 6 6 6 6 6 6 7 9 10 12 12 12 13
4 2 2 1 2 4 5 5 7 8 9 8 8 5 6 5 5 5 5 4 6 8 8 10 8 11 12 12 10 8 6 5 4 5 5 5 5 5 6 7 7 7 6 6 6 6 6 7 9 10 11 11 12 14
2 2 1 2 3 5 7 7 7 9 8 7 7 6 5 4 4 4 4 4 5 5 7 8 10 10 9 6 6 5 5 5 6 6 5 5 5 6 6 7 7 7 7 6 6 7 7 7 7 8 9 11 13 14
2 2 2 2 3 7 9 8 6 8 8 6 5 5 5 5 4 4 5 5 6 8 9 9 8 6 6 4 3 3 4 4 5 7 6 5 5 6 7 7 7 7 7 7 7 9 8 8 7 7 8 10 12 13
2 2 2 3 4 5 7 7 8 7 6 6 5 5 5 4 6 6 6 5 8 9 9 6 6 5 4 3 3 3 4 5 5 6 6 7 6 7 7 7 7 7 8 7 8 8 8 9 8 8 8 9 9 10
4 3 4 4 6 6 7 5 6 5 6 6 6 6 6 7 7 7 5 8 9 8 6 5 5 5 5 5 5 4 4 4 4 6 7 7 7 7 8 7 7 8 8 8 8 8 8 8 8 9 9 9 9 10
3 4 5 6 8 8 9 4 8 7 9 7 6 8 8 7 6 5 8 7 6 5 5 5 5 4 4 4 4 5 4 4 5 6 6 7 7 7 8 8 7 8 9 8 7 7 8 10 9 8 8 9 9 9
4 6 8 8 8 10 7 8 7 8 8 9 9 9 8 7 6 8 10 8 7 5 5 5 5 6 6 5 6 6 5 5 6 6 6 7 8 9 8 8 8 8 8 7 7 7 7 8 10 8 8 9 9 10
9 9 8 10 8 9 10 10 10 9 11 10 11 10 8 6 10 11 10 8 7 6 6 5 5 6 7 6 6 6 5 6 7 8 7 7 8 8 8 8 8 8 8 8 8 8 8 8 8 9 9 9 9 10
11 9 10 10 10 10 9 11 10 10 10 11 10 7 7 9 11 12 10 9 7 7 6 5 6 6 6 6 7 7 6 6 6 8 8 7 7 8 9 9 10 9 8 8 8 8 8 8 8 9 9 9 11 9
12 11 8 6 7 8 9 8 7 8 10 10 9 9 10 12 12 11 9 9 8 8 7 6 5 6 6 6 6 6 6 5 6 7 6 7 7 7 7 8 9 9 8 9 8 8 8 8 9 9 9 8 8 9
9 9 10 9 9 8 10 9 10 10 9 7 7 11 11 13 13 12 10 10 9 8 7 5 4 4 5 6 6 6 6 6 6 7 7 7 7 7 7 7 8 13 9 9 9 8 8 8 8 9 9 9 9 8
9 8 9 10 9 10 10 9 9 8 8 8 10 11 12 11 11 11 11 10 8 7 6 7 7 6 7 7 6 7 7 7 8 9 9 9 9 8 7 7 8 8 9 10 15 12 10 9 9 9 9 9 8 8
9 7 9 9 10 10 8 7 8 8 9 10 10 10 11 11 11 10 10 10 10 9 6 6 6 6 7 8 8 8 6 6 6 7 8 9 8 7 7 8 8 8 8 9 9 10 14 10 11 8 8 8 8 9
8 8 9 9 10 9 9 9 9 9 9 9 9 10 11 11 10 11 12 11 11 10 8 7 7 6 6 7 8 9 9 7 7 6 6 7 7 7 7 8 8 8 8 9 9 9 9 10 10 10 10 10 10 10
8 9 9 10 10 9 8 9 9 10 10 11 11 9 9 10 13 12 12 12 12 13 12 10 9 9 7 7 7 7 9 7 6 6 6 6 7 7 8 8 8 8 9 9 10 10 10 11 10 11 11 11 12 12
9 9 9 9 10 10 9 9 10 11 11 12 12 12 12 12 14 12 10 11 12 12 12 11 10 9 9 9 9 9 9 9 11 12 12 11 11 10 8 8 8 9 10 10 10 10 10 11 11 11 11 11 12 12